owner,sensor,date,latitude,longitude,air_pressure(mBar),qcFlag 
LOOP,urn:ioos:station:wmo:lopl1:1,2017-02-01T00:16:00Z,28.8850,-90.0250,1022.1,11111222 
LOOP,urn:ioos:station:wmo:lopl1:1,2017-02-01T01:16:00Z,28.8850,-90.0250,1022.1,11111222 
LOOP,urn:ioos:station:wmo:lopl1:1,2017-02-01T02:21:00Z,28.8850,-90.0250,1021.1,11111222 
LOOP,urn:ioos:station:wmo:lopl1:1,2017-02-01T03:21:00Z,28.8850,-90.0250,1021.1,11111222 
LOOP,urn:ioos:station:wmo:lopl1:1,2017-02-01T04:21:00Z,28.8850,-90.0250,1021.1,11111222 
LOOP,urn:ioos:station:wmo:lopl1:1,2017-02-01T05:21:00Z,28.8850,-90.0250,1021.1,11111222 
LOOP,urn:ioos:station:wmo:lopl1:1,2017-02-01T06:21:00Z,28.8850,-90.0250,1021.1,11111222 
LOOP,urn:ioos:station:wmo:lopl1:1,2017-02-01T07:21:00Z,28.8850,-90.0250,1020.1,11111222 
LOOP,urn:ioos:station:wmo:lopl1:1,2017-02-01T08:21:00Z,28.8850,-90.0250,1020.1,11111222 
LOOP,urn:ioos:station:wmo:lopl1:1,2017-02-01T09:21:00Z,28.8850,-90.0250,1020.1,11111222 
LOOP,urn:ioos:station:wmo:lopl1:1,2017-02-01T10:21:00Z,28.8850,-90.0250,1020.1,11111222 
LOOP,urn:ioos:station:wmo:lopl1:1,2017-02-01T11:21:00Z,28.8850,-90.0250,1020.1,11111222 
LOOP,urn:ioos:station:wmo:lopl1:1,2017-02-01T12:21:00Z,28.8850,-90.0250,1021.1,11111222 
LOOP,urn:ioos:station:wmo:lopl1:1,2017-02-01T13:21:00Z,28.8850,-90.0250,1021.1,11111222 
LOOP,urn:ioos:station:wmo:lopl1:1,2017-02-01T14:21:00Z,28.8850,-90.0250,1022.1,11111222 
LOOP,urn:ioos:station:wmo:lopl1:1,2017-02-01T15:26:00Z,28.8850,-90.0250,1022.1,11111222 
LOOP,urn:ioos:station:wmo:lopl1:1,2017-02-01T16:26:00Z,28.8850,-90.0250,1022.1,11111222 
LOOP,urn:ioos:station:wmo:lopl1:1,2017-02-01T17:26:00Z,28.8850,-90.0250,1021.1,11111222 
LOOP,urn:ioos:station:wmo:lopl1:1,2017-02-01T18:26:00Z,28.8850,-90.0250,1021.1,11111222 
LOOP,urn:ioos:station:wmo:lopl1:1,2017-02-01T19:26:00Z,28.8850,-90.0250,1020.1,11111222 
LOOP,urn:ioos:station:wmo:lopl1:1,2017-02-01T20:26:00Z,28.8850,-90.0250,1020.1,11111222 
LOOP,urn:ioos:station:wmo:lopl1:1,2017-02-01T21:26:00Z,28.8850,-90.0250,1020.1,11111222 
LOOP,urn:ioos:station:wmo:lopl1:1,2017-02-01T22:26:00Z,28.8850,-90.0250,1020.1,11111222 
LOOP,urn:ioos:station:wmo:lopl1:1,2017-02-01T23:26:00Z,28.8850,-90.0250,1020.1,11111222 
LOOP,urn:ioos:station:wmo:lopl1:1,2017-02-02T00:26:00Z,28.8850,-90.0250,1020.1,11111222 
LOOP,urn:ioos:station:wmo:lopl1:1,2017-02-02T01:26:00Z,28.8850,-90.0250,1021.1,11111222 
LOOP,urn:ioos:station:wmo:lopl1:1,2017-02-02T02:26:00Z,28.8850,-90.0250,1021.1,11111222 
LOOP,urn:ioos:station:wmo:lopl1:1,2017-02-02T03:26:00Z,28.8850,-90.0250,1021.1,11111222 
LOOP,urn:ioos:station:wmo:lopl1:1,2017-02-02T04:31:00Z,28.8850,-90.0250,1021.1,11111222 
LOOP,urn:ioos:station:wmo:lopl1:1,2017-02-02T05:31:00Z,28.8850,-90.0250,1021.1,11111222 
LOOP,urn:ioos:station:wmo:lopl1:1,2017-02-02T06:31:00Z,28.8850,-90.0250,1021.1,11111222 
LOOP,urn:ioos:station:wmo:lopl1:1,2017-02-02T07:31:00Z,28.8850,-90.0250,1021.1,11111222 
LOOP,urn:ioos:station:wmo:lopl1:1,2017-02-02T08:31:00Z,28.8850,-90.0250,1021.1,11111222 
LOOP,urn:ioos:station:wmo:lopl1:1,2017-02-02T09:31:00Z,28.8850,-90.0250,1021.1,11111222 
LOOP,urn:ioos:station:wmo:lopl1:1,2017-02-02T10:31:00Z,28.8850,-90.0250,1021.1,11111222 
LOOP,urn:ioos:station:wmo:lopl1:1,2017-02-02T11:31:00Z,28.8850,-90.0250,1022.1,11111222 
LOOP,urn:ioos:station:wmo:lopl1:1,2017-02-02T12:31:00Z,28.8850,-90.0250,1022.1,11111222 
LOOP,urn:ioos:station:wmo:lopl1:1,2017-02-02T13:31:00Z,28.8850,-90.0250,1023.1,11111222 
LOOP,urn:ioos:station:wmo:lopl1:1,2017-02-02T14:31:00Z,28.8850,-90.0250,1023.1,11111222 
LOOP,urn:ioos:station:wmo:lopl1:1,2017-02-02T15:31:00Z,28.8850,-90.0250,1024.1,11111222 
LOOP,urn:ioos:station:wmo:lopl1:1,2017-02-02T16:31:00Z,28.8850,-90.0250,1024.1,11111222 
LOOP,urn:ioos:station:wmo:lopl1:1,2017-02-02T17:36:00Z,28.8850,-90.0250,1023.1,11111222 
LOOP,urn:ioos:station:wmo:lopl1:1,2017-02-02T18:36:00Z,28.8850,-90.0250,1022.1,11111222 
LOOP,urn:ioos:station:wmo:lopl1:1,2017-02-02T19:36:00Z,28.8850,-90.0250,1022.1,11111222 
LOOP,urn:ioos:station:wmo:lopl1:1,2017-02-02T20:36:00Z,28.8850,-90.0250,1021.1,11111222 
LOOP,urn:ioos:station:wmo:lopl1:1,2017-02-02T21:36:00Z,28.8850,-90.0250,1022.1,11111222 
LOOP,urn:ioos:station:wmo:lopl1:1,2017-02-02T22:36:00Z,28.8850,-90.0250,1022.1,11111222 
LOOP,urn:ioos:station:wmo:lopl1:1,2017-02-02T23:36:00Z,28.8850,-90.0250,1022.1,11111222 
LOOP,urn:ioos:station:wmo:lopl1:1,2017-02-03T00:36:00Z,28.8850,-90.0250,1022.1,11111222 
LOOP,urn:ioos:station:wmo:lopl1:1,2017-02-03T01:36:00Z,28.8850,-90.0250,1023.1,11111222 
LOOP,urn:ioos:station:wmo:lopl1:1,2017-02-03T02:36:00Z,28.8850,-90.0250,1023.1,11111222 
LOOP,urn:ioos:station:wmo:lopl1:1,2017-02-03T03:36:00Z,28.8850,-90.0250,1022.1,11111222 
LOOP,urn:ioos:station:wmo:lopl1:1,2017-02-03T04:36:00Z,28.8850,-90.0250,1022.1,11111222 
LOOP,urn:ioos:station:wmo:lopl1:1,2017-02-03T05:41:00Z,28.8850,-90.0250,1022.1,11111222 
LOOP,urn:ioos:station:wmo:lopl1:1,2017-02-03T06:41:00Z,28.8850,-90.0250,1022.1,11111222 
LOOP,urn:ioos:station:wmo:lopl1:1,2017-02-03T07:41:00Z,28.8850,-90.0250,1022.1,11111222 
LOOP,urn:ioos:station:wmo:lopl1:1,2017-02-03T08:41:00Z,28.8850,-90.0250,1022.1,11111222 
LOOP,urn:ioos:station:wmo:lopl1:1,2017-02-03T09:41:00Z,28.8850,-90.0250,1022.1,11111222 
LOOP,urn:ioos:station:wmo:lopl1:1,2017-02-03T10:41:00Z,28.8850,-90.0250,1022.1,11111222 
LOOP,urn:ioos:station:wmo:lopl1:1,2017-02-03T11:41:00Z,28.8850,-90.0250,1022.1,11111222 
LOOP,urn:ioos:station:wmo:lopl1:1,2017-02-03T12:41:00Z,28.8850,-90.0250,1023.1,11111222 
LOOP,urn:ioos:station:wmo:lopl1:1,2017-02-03T13:41:00Z,28.8850,-90.0250,1023.1,11111222 
LOOP,urn:ioos:station:wmo:lopl1:1,2017-02-03T14:41:00Z,28.8850,-90.0250,1024.1,11111222 
LOOP,urn:ioos:station:wmo:lopl1:1,2017-02-03T15:41:00Z,28.8850,-90.0250,1024.1,11111222 
LOOP,urn:ioos:station:wmo:lopl1:1,2017-02-03T16:41:00Z,28.8850,-90.0250,1024.1,11111222 
LOOP,urn:ioos:station:wmo:lopl1:1,2017-02-03T17:46:00Z,28.8850,-90.0250,1024.1,11111222 
LOOP,urn:ioos:station:wmo:lopl1:1,2017-02-03T18:46:00Z,28.8850,-90.0250,1023.1,11111222 
LOOP,urn:ioos:station:wmo:lopl1:1,2017-02-03T19:46:00Z,28.8850,-90.0250,1023.1,11111222 
LOOP,urn:ioos:station:wmo:lopl1:1,2017-02-03T20:46:00Z,28.8850,-90.0250,1023.1,11111222 
LOOP,urn:ioos:station:wmo:lopl1:1,2017-02-03T21:46:00Z,28.8850,-90.0250,1023.1,11111222 
LOOP,urn:ioos:station:wmo:lopl1:1,2017-02-03T22:46:00Z,28.8850,-90.0250,1024.1,11111222 
LOOP,urn:ioos:station:wmo:lopl1:1,2017-02-03T23:51:00Z,28.8850,-90.0250,1024.1,11111222 
LOOP,urn:ioos:station:wmo:lopl1:1,2017-02-04T00:01:00Z,28.8850,-90.0250,1024.1,11111222 
LOOP,urn:ioos:station:wmo:lopl1:1,2017-02-04T01:01:00Z,28.8850,-90.0250,1025.1,11111222 
LOOP,urn:ioos:station:wmo:lopl1:1,2017-02-04T02:01:00Z,28.8850,-90.0250,1026.1,11111222 
LOOP,urn:ioos:station:wmo:lopl1:1,2017-02-04T03:01:00Z,28.8850,-90.0250,1026.1,11111222 
LOOP,urn:ioos:station:wmo:lopl1:1,2017-02-04T04:01:00Z,28.8850,-90.0250,1026.1,11111222 
LOOP,urn:ioos:station:wmo:lopl1:1,2017-02-04T05:01:00Z,28.8850,-90.0250,1027.1,11111222 
LOOP,urn:ioos:station:wmo:lopl1:1,2017-02-04T06:01:00Z,28.8850,-90.0250,1026.1,11111222 
LOOP,urn:ioos:station:wmo:lopl1:1,2017-02-04T07:11:00Z,28.8850,-90.0250,1026.1,11111222 
LOOP,urn:ioos:station:wmo:lopl1:1,2017-02-04T08:11:00Z,28.8850,-90.0250,1026.1,11111222 
LOOP,urn:ioos:station:wmo:lopl1:1,2017-02-04T09:11:00Z,28.8850,-90.0250,1025.1,11111222 
LOOP,urn:ioos:station:wmo:lopl1:1,2017-02-04T10:11:00Z,28.8850,-90.0250,1025.1,11111222 
LOOP,urn:ioos:station:wmo:lopl1:1,2017-02-04T11:11:00Z,28.8850,-90.0250,1025.1,11111222 
LOOP,urn:ioos:station:wmo:lopl1:1,2017-02-04T12:11:00Z,28.8850,-90.0250,1025.1,11111222 
LOOP,urn:ioos:station:wmo:lopl1:1,2017-02-04T13:11:00Z,28.8850,-90.0250,1026.1,11111222 
LOOP,urn:ioos:station:wmo:lopl1:1,2017-02-04T14:11:00Z,28.8850,-90.0250,1026.1,11111222 
LOOP,urn:ioos:station:wmo:lopl1:1,2017-02-04T15:11:00Z,28.8850,-90.0250,1027.1,11111222 
LOOP,urn:ioos:station:wmo:lopl1:1,2017-02-04T16:11:00Z,28.8850,-90.0250,1028.1,11111222 
LOOP,urn:ioos:station:wmo:lopl1:1,2017-02-04T17:11:00Z,28.8850,-90.0250,1027.1,11111222 
LOOP,urn:ioos:station:wmo:lopl1:1,2017-02-04T18:11:00Z,28.8850,-90.0250,1026.1,11111222 
LOOP,urn:ioos:station:wmo:lopl1:1,2017-02-04T19:11:00Z,28.8850,-90.0250,1025.1,11111222 
LOOP,urn:ioos:station:wmo:lopl1:1,2017-02-04T20:11:00Z,28.8850,-90.0250,1024.1,11111222 
LOOP,urn:ioos:station:wmo:lopl1:1,2017-02-04T21:11:00Z,28.8850,-90.0250,1024.1,11111222 
LOOP,urn:ioos:station:wmo:lopl1:1,2017-02-04T22:11:00Z,28.8850,-90.0250,1024.1,11111222 
LOOP,urn:ioos:station:wmo:lopl1:1,2017-02-04T23:11:00Z,28.8850,-90.0250,1024.1,11111222 
LOOP,urn:ioos:station:wmo:lopl1:1,2017-02-05T00:11:00Z,28.8850,-90.0250,1024.1,11111222 
LOOP,urn:ioos:station:wmo:lopl1:1,2017-02-05T01:11:00Z,28.8850,-90.0250,1024.1,11111222 
LOOP,urn:ioos:station:wmo:lopl1:1,2017-02-05T02:11:00Z,28.8850,-90.0250,1025.1,11111222 
LOOP,urn:ioos:station:wmo:lopl1:1,2017-02-05T03:11:00Z,28.8850,-90.0250,1024.1,11111222 
LOOP,urn:ioos:station:wmo:lopl1:1,2017-02-05T04:11:00Z,28.8850,-90.0250,1024.1,11111222 
LOOP,urn:ioos:station:wmo:lopl1:1,2017-02-05T05:11:00Z,28.8850,-90.0250,1024.1,11111222 
LOOP,urn:ioos:station:wmo:lopl1:1,2017-02-05T06:16:00Z,28.8850,-90.0250,1023.1,11111222 
LOOP,urn:ioos:station:wmo:lopl1:1,2017-02-05T07:16:00Z,28.8850,-90.0250,1023.1,11111222 
LOOP,urn:ioos:station:wmo:lopl1:1,2017-02-05T08:16:00Z,28.8850,-90.0250,1022.1,11111222 
LOOP,urn:ioos:station:wmo:lopl1:1,2017-02-05T09:16:00Z,28.8850,-90.0250,1022.1,11111222 
LOOP,urn:ioos:station:wmo:lopl1:1,2017-02-05T10:16:00Z,28.8850,-90.0250,1022.1,11111222 
LOOP,urn:ioos:station:wmo:lopl1:1,2017-02-05T11:16:00Z,28.8850,-90.0250,1022.1,11111222 
LOOP,urn:ioos:station:wmo:lopl1:1,2017-02-05T12:16:00Z,28.8850,-90.0250,1022.1,11111222 
LOOP,urn:ioos:station:wmo:lopl1:1,2017-02-05T13:16:00Z,28.8850,-90.0250,1022.1,11111222 
LOOP,urn:ioos:station:wmo:lopl1:1,2017-02-05T14:16:00Z,28.8850,-90.0250,1023.1,11111222 
LOOP,urn:ioos:station:wmo:lopl1:1,2017-02-05T15:16:00Z,28.8850,-90.0250,1023.1,11111222 
LOOP,urn:ioos:station:wmo:lopl1:1,2017-02-05T16:21:00Z,28.8850,-90.0250,1023.1,11111222 
LOOP,urn:ioos:station:wmo:lopl1:1,2017-02-05T17:21:00Z,28.8850,-90.0250,1023.1,11111222 
LOOP,urn:ioos:station:wmo:lopl1:1,2017-02-05T18:21:00Z,28.8850,-90.0250,1022.1,11111222 
LOOP,urn:ioos:station:wmo:lopl1:1,2017-02-05T19:21:00Z,28.8850,-90.0250,1021.1,11111222 
LOOP,urn:ioos:station:wmo:lopl1:1,2017-02-05T20:21:00Z,28.8850,-90.0250,1020.1,11111222 
LOOP,urn:ioos:station:wmo:lopl1:1,2017-02-05T21:21:00Z,28.8850,-90.0250,1020.1,11111222 
LOOP,urn:ioos:station:wmo:lopl1:1,2017-02-05T22:21:00Z,28.8850,-90.0250,1021.1,11111222 
LOOP,urn:ioos:station:wmo:lopl1:1,2017-02-05T23:21:00Z,28.8850,-90.0250,1021.1,11111222 
LOOP,urn:ioos:station:wmo:lopl1:1,2017-02-06T00:21:00Z,28.8850,-90.0250,1021.1,11111222 
LOOP,urn:ioos:station:wmo:lopl1:1,2017-02-06T01:21:00Z,28.8850,-90.0250,1021.1,11111222 
LOOP,urn:ioos:station:wmo:lopl1:1,2017-02-06T02:21:00Z,28.8850,-90.0250,1022.1,11111222 
LOOP,urn:ioos:station:wmo:lopl1:1,2017-02-06T03:21:00Z,28.8850,-90.0250,1022.1,11111222 
LOOP,urn:ioos:station:wmo:lopl1:1,2017-02-06T04:21:00Z,28.8850,-90.0250,1021.1,11111222 
LOOP,urn:ioos:station:wmo:lopl1:1,2017-02-06T05:21:00Z,28.8850,-90.0250,1021.1,11111222 
LOOP,urn:ioos:station:wmo:lopl1:1,2017-02-06T06:21:00Z,28.8850,-90.0250,1020.1,11111222 
LOOP,urn:ioos:station:wmo:lopl1:1,2017-02-06T07:26:00Z,28.8850,-90.0250,1020.1,11111222 
LOOP,urn:ioos:station:wmo:lopl1:1,2017-02-06T08:26:00Z,28.8850,-90.0250,1020.1,11111222 
LOOP,urn:ioos:station:wmo:lopl1:1,2017-02-06T09:26:00Z,28.8850,-90.0250,1019.1,11111222 
LOOP,urn:ioos:station:wmo:lopl1:1,2017-02-06T10:26:00Z,28.8850,-90.0250,1019.1,11111222 
LOOP,urn:ioos:station:wmo:lopl1:1,2017-02-06T11:26:00Z,28.8850,-90.0250,1019.1,11111222 
LOOP,urn:ioos:station:wmo:lopl1:1,2017-02-06T12:26:00Z,28.8850,-90.0250,1020.1,11111222 
LOOP,urn:ioos:station:wmo:lopl1:1,2017-02-06T13:26:00Z,28.8850,-90.0250,1020.1,11111222 
LOOP,urn:ioos:station:wmo:lopl1:1,2017-02-06T14:26:00Z,28.8850,-90.0250,1021.1,11111222 
LOOP,urn:ioos:station:wmo:lopl1:1,2017-02-06T15:26:00Z,28.8850,-90.0250,1021.1,11111222 
LOOP,urn:ioos:station:wmo:lopl1:1,2017-02-06T16:26:00Z,28.8850,-90.0250,1022.1,11111222 
LOOP,urn:ioos:station:wmo:lopl1:1,2017-02-06T17:26:00Z,28.8850,-90.0250,1021.1,11111222 
LOOP,urn:ioos:station:wmo:lopl1:1,2017-02-06T18:26:00Z,28.8850,-90.0250,1020.1,11111222 
LOOP,urn:ioos:station:wmo:lopl1:1,2017-02-06T19:26:00Z,28.8850,-90.0250,1019.1,11111222 
LOOP,urn:ioos:station:wmo:lopl1:1,2017-02-06T20:31:00Z,28.8850,-90.0250,1018.1,11111222 
LOOP,urn:ioos:station:wmo:lopl1:1,2017-02-06T21:31:00Z,28.8850,-90.0250,1018.1,11111222 
LOOP,urn:ioos:station:wmo:lopl1:1,2017-02-06T22:31:00Z,28.8850,-90.0250,1018.1,11111222 
LOOP,urn:ioos:station:wmo:lopl1:1,2017-02-06T23:31:00Z,28.8850,-90.0250,1018.1,11111222 
LOOP,urn:ioos:station:wmo:lopl1:1,2017-02-07T00:31:00Z,28.8850,-90.0250,1018.1,11111222 
LOOP,urn:ioos:station:wmo:lopl1:1,2017-02-07T01:31:00Z,28.8850,-90.0250,1017.1,11111222 
LOOP,urn:ioos:station:wmo:lopl1:1,2017-02-07T02:31:00Z,28.8850,-90.0250,1017.1,11111222 
LOOP,urn:ioos:station:wmo:lopl1:1,2017-02-07T03:31:00Z,28.8850,-90.0250,1017.1,11111222 
LOOP,urn:ioos:station:wmo:lopl1:1,2017-02-07T04:31:00Z,28.8850,-90.0250,1017.1,11111222 
LOOP,urn:ioos:station:wmo:lopl1:1,2017-02-07T05:31:00Z,28.8850,-90.0250,1015.1,11111222 
LOOP,urn:ioos:station:wmo:lopl1:1,2017-02-07T06:31:00Z,28.8850,-90.0250,1015.1,11111222 
LOOP,urn:ioos:station:wmo:lopl1:1,2017-02-07T07:31:00Z,28.8850,-90.0250,1015.1,11111222 
LOOP,urn:ioos:station:wmo:lopl1:1,2017-02-07T08:36:00Z,28.8850,-90.0250,1014.1,11111222 
LOOP,urn:ioos:station:wmo:lopl1:1,2017-02-07T09:36:00Z,28.8850,-90.0250,1014.1,11111222 
LOOP,urn:ioos:station:wmo:lopl1:1,2017-02-07T10:36:00Z,28.8850,-90.0250,1013.1,11111222 
LOOP,urn:ioos:station:wmo:lopl1:1,2017-02-07T11:36:00Z,28.8850,-90.0250,1013.1,11111222 
LOOP,urn:ioos:station:wmo:lopl1:1,2017-02-07T12:36:00Z,28.8850,-90.0250,1014.1,11111222 
LOOP,urn:ioos:station:wmo:lopl1:1,2017-02-07T13:36:00Z,28.8850,-90.0250,1014.1,11111222 
LOOP,urn:ioos:station:wmo:lopl1:1,2017-02-07T14:36:00Z,28.8850,-90.0250,1014.1,11111222 
LOOP,urn:ioos:station:wmo:lopl1:1,2017-02-07T15:36:00Z,28.8850,-90.0250,1013.1,11111222 
LOOP,urn:ioos:station:wmo:lopl1:1,2017-02-07T16:36:00Z,28.8850,-90.0250,1013.1,11111222 
LOOP,urn:ioos:station:wmo:lopl1:1,2017-02-07T17:36:00Z,28.8850,-90.0250,1012.1,11111222 
LOOP,urn:ioos:station:wmo:lopl1:1,2017-02-07T21:41:00Z,28.8850,-90.0250,1009.1,11111222 
LOOP,urn:ioos:station:wmo:lopl1:1,2017-02-07T23:41:00Z,28.8850,-90.0250,1009.1,11111222 
LOOP,urn:ioos:station:wmo:lopl1:1,2017-02-08T13:46:00Z,28.8850,-90.0250,1010.1,11111222 
LOOP,urn:ioos:station:wmo:lopl1:1,2017-02-08T14:46:00Z,28.8850,-90.0250,1011.1,11111222 
LOOP,urn:ioos:station:wmo:lopl1:1,2017-02-08T15:46:00Z,28.8850,-90.0250,1011.1,11111222 
LOOP,urn:ioos:station:wmo:lopl1:1,2017-02-08T16:46:00Z,28.8850,-90.0250,1011.1,11111222 
LOOP,urn:ioos:station:wmo:lopl1:1,2017-02-08T17:46:00Z,28.8850,-90.0250,1011.1,11111222 
LOOP,urn:ioos:station:wmo:lopl1:1,2017-02-08T18:46:00Z,28.8850,-90.0250,1010.1,11111222 
LOOP,urn:ioos:station:wmo:lopl1:1,2017-02-08T19:46:00Z,28.8850,-90.0250,1010.1,11111222 
LOOP,urn:ioos:station:wmo:lopl1:1,2017-02-08T20:46:00Z,28.8850,-90.0250,1010.1,11111222 
LOOP,urn:ioos:station:wmo:lopl1:1,2017-02-08T21:46:00Z,28.8850,-90.0250,1010.1,11111222 
LOOP,urn:ioos:station:wmo:lopl1:1,2017-02-08T22:46:00Z,28.8850,-90.0250,1010.1,11111222 
LOOP,urn:ioos:station:wmo:lopl1:1,2017-02-08T23:51:00Z,28.8850,-90.0250,1011.1,11111222 
LOOP,urn:ioos:station:wmo:lopl1:1,2017-02-09T00:51:00Z,28.8850,-90.0250,1012.1,11111222 
LOOP,urn:ioos:station:wmo:lopl1:1,2017-02-09T01:51:00Z,28.8850,-90.0250,1012.1,11111222 
LOOP,urn:ioos:station:wmo:lopl1:1,2017-02-09T02:51:00Z,28.8850,-90.0250,1013.1,11111222 
LOOP,urn:ioos:station:wmo:lopl1:1,2017-02-09T03:51:00Z,28.8850,-90.0250,1013.1,11111222 
LOOP,urn:ioos:station:wmo:lopl1:1,2017-02-09T04:51:00Z,28.8850,-90.0250,1014.1,11111222 
LOOP,urn:ioos:station:wmo:lopl1:1,2017-02-09T05:51:00Z,28.8850,-90.0250,1015.1,11111222 
LOOP,urn:ioos:station:wmo:lopl1:1,2017-02-09T06:51:00Z,28.8850,-90.0250,1014.1,11111222 
LOOP,urn:ioos:station:wmo:lopl1:1,2017-02-09T07:51:00Z,28.8850,-90.0250,1015.1,11111222 
LOOP,urn:ioos:station:wmo:lopl1:1,2017-02-09T08:51:00Z,28.8850,-90.0250,1015.1,11111222 
LOOP,urn:ioos:station:wmo:lopl1:1,2017-02-09T09:51:00Z,28.8850,-90.0250,1016.1,11111222 
LOOP,urn:ioos:station:wmo:lopl1:1,2017-02-09T10:51:00Z,28.8850,-90.0250,1017.1,11111222 
LOOP,urn:ioos:station:wmo:lopl1:1,2017-02-09T11:51:00Z,28.8850,-90.0250,1017.1,11111222 
LOOP,urn:ioos:station:wmo:lopl1:1,2017-02-09T12:56:00Z,28.8850,-90.0250,1020.1,11111222 
LOOP,urn:ioos:station:wmo:lopl1:1,2017-02-09T13:56:00Z,28.8850,-90.0250,1021.1,11111222 
LOOP,urn:ioos:station:wmo:lopl1:1,2017-02-09T14:56:00Z,28.8850,-90.0250,1022.1,11111222 
LOOP,urn:ioos:station:wmo:lopl1:1,2017-02-09T15:56:00Z,28.8850,-90.0250,1023.1,11111222 
LOOP,urn:ioos:station:wmo:lopl1:1,2017-02-09T16:56:00Z,28.8850,-90.0250,1024.1,11111222 
LOOP,urn:ioos:station:wmo:lopl1:1,2017-02-09T17:56:00Z,28.8850,-90.0250,1024.1,11111222 
LOOP,urn:ioos:station:wmo:lopl1:1,2017-02-09T18:56:00Z,28.8850,-90.0250,1023.1,11111222 
LOOP,urn:ioos:station:wmo:lopl1:1,2017-02-09T19:56:00Z,28.8850,-90.0250,1023.1,11111222 
LOOP,urn:ioos:station:wmo:lopl1:1,2017-02-09T20:56:00Z,28.8850,-90.0250,1023.1,11111222 
LOOP,urn:ioos:station:wmo:lopl1:1,2017-02-09T21:56:00Z,28.8850,-90.0250,1024.1,11111222 
LOOP,urn:ioos:station:wmo:lopl1:1,2017-02-09T22:56:00Z,28.8850,-90.0250,1024.1,11111222 
LOOP,urn:ioos:station:wmo:lopl1:1,2017-02-09T23:56:00Z,28.8850,-90.0250,1025.1,11111222 
LOOP,urn:ioos:station:wmo:lopl1:1,2017-02-10T00:56:00Z,28.8850,-90.0250,1026.1,11111222 
LOOP,urn:ioos:station:wmo:lopl1:1,2017-02-10T01:56:00Z,28.8850,-90.0250,1027.1,11111222 
LOOP,urn:ioos:station:wmo:lopl1:1,2017-02-10T03:01:00Z,28.8850,-90.0250,1028.1,11111222 
LOOP,urn:ioos:station:wmo:lopl1:1,2017-02-10T04:01:00Z,28.8850,-90.0250,1028.1,11111222 
LOOP,urn:ioos:station:wmo:lopl1:1,2017-02-10T05:01:00Z,28.8850,-90.0250,1027.1,11111222 
LOOP,urn:ioos:station:wmo:lopl1:1,2017-02-10T06:01:00Z,28.8850,-90.0250,1027.1,11111222 
LOOP,urn:ioos:station:wmo:lopl1:1,2017-02-10T07:01:00Z,28.8850,-90.0250,1027.1,11111222 
LOOP,urn:ioos:station:wmo:lopl1:1,2017-02-10T08:01:00Z,28.8850,-90.0250,1026.1,11111222 
LOOP,urn:ioos:station:wmo:lopl1:1,2017-02-10T09:01:00Z,28.8850,-90.0250,1026.1,11111222 
LOOP,urn:ioos:station:wmo:lopl1:1,2017-02-10T10:01:00Z,28.8850,-90.0250,1026.1,11111222 
LOOP,urn:ioos:station:wmo:lopl1:1,2017-02-10T11:01:00Z,28.8850,-90.0250,1026.1,11111222 
LOOP,urn:ioos:station:wmo:lopl1:1,2017-02-10T12:01:00Z,28.8850,-90.0250,1027.1,11111222 
LOOP,urn:ioos:station:wmo:lopl1:1,2017-02-10T13:01:00Z,28.8850,-90.0250,1027.1,11111222 
LOOP,urn:ioos:station:wmo:lopl1:1,2017-02-10T14:01:00Z,28.8850,-90.0250,1027.1,11111222 
LOOP,urn:ioos:station:wmo:lopl1:1,2017-02-10T15:01:00Z,28.8850,-90.0250,1027.1,11111222 
LOOP,urn:ioos:station:wmo:lopl1:1,2017-02-10T16:06:00Z,28.8850,-90.0250,1028.1,11111222 
LOOP,urn:ioos:station:wmo:lopl1:1,2017-02-10T17:06:00Z,28.8850,-90.0250,1027.1,11111222 
LOOP,urn:ioos:station:wmo:lopl1:1,2017-02-10T18:06:00Z,28.8850,-90.0250,1026.1,11111222 
LOOP,urn:ioos:station:wmo:lopl1:1,2017-02-10T19:06:00Z,28.8850,-90.0250,1025.1,11111222 
LOOP,urn:ioos:station:wmo:lopl1:1,2017-02-10T20:06:00Z,28.8850,-90.0250,1025.1,11111222 
LOOP,urn:ioos:station:wmo:lopl1:1,2017-02-10T21:06:00Z,28.8850,-90.0250,1024.1,11111222 
LOOP,urn:ioos:station:wmo:lopl1:1,2017-02-10T22:06:00Z,28.8850,-90.0250,1024.1,11111222 
LOOP,urn:ioos:station:wmo:lopl1:1,2017-02-10T23:06:00Z,28.8850,-90.0250,1024.1,11111222 
LOOP,urn:ioos:station:wmo:lopl1:1,2017-02-11T00:06:00Z,28.8850,-90.0250,1024.1,11111222 
LOOP,urn:ioos:station:wmo:lopl1:1,2017-02-11T01:06:00Z,28.8850,-90.0250,1024.1,11111222 
LOOP,urn:ioos:station:wmo:lopl1:1,2017-02-11T02:06:00Z,28.8850,-90.0250,1024.1,11111222 
LOOP,urn:ioos:station:wmo:lopl1:1,2017-02-11T03:06:00Z,28.8850,-90.0250,1023.1,11111222 
LOOP,urn:ioos:station:wmo:lopl1:1,2017-02-11T04:06:00Z,28.8850,-90.0250,1023.1,11111222 
LOOP,urn:ioos:station:wmo:lopl1:1,2017-02-11T05:06:00Z,28.8850,-90.0250,1022.1,11111222 
LOOP,urn:ioos:station:wmo:lopl1:1,2017-02-11T06:06:00Z,28.8850,-90.0250,1022.1,11111222 
LOOP,urn:ioos:station:wmo:lopl1:1,2017-02-11T07:11:00Z,28.8850,-90.0250,1022.1,11111222 
LOOP,urn:ioos:station:wmo:lopl1:1,2017-02-11T08:11:00Z,28.8850,-90.0250,1021.1,11111222 
LOOP,urn:ioos:station:wmo:lopl1:1,2017-02-11T09:11:00Z,28.8850,-90.0250,1021.1,11111222 
LOOP,urn:ioos:station:wmo:lopl1:1,2017-02-11T10:11:00Z,28.8850,-90.0250,1022.1,11111222 
LOOP,urn:ioos:station:wmo:lopl1:1,2017-02-11T11:11:00Z,28.8850,-90.0250,1022.1,11111222 
LOOP,urn:ioos:station:wmo:lopl1:1,2017-02-11T12:11:00Z,28.8850,-90.0250,1022.1,11111222 
LOOP,urn:ioos:station:wmo:lopl1:1,2017-02-11T13:11:00Z,28.8850,-90.0250,1023.1,11111222 
LOOP,urn:ioos:station:wmo:lopl1:1,2017-02-11T14:11:00Z,28.8850,-90.0250,1023.1,11111222 
LOOP,urn:ioos:station:wmo:lopl1:1,2017-02-11T15:11:00Z,28.8850,-90.0250,1023.1,11111222 
LOOP,urn:ioos:station:wmo:lopl1:1,2017-02-11T16:11:00Z,28.8850,-90.0250,1023.1,11111222 
LOOP,urn:ioos:station:wmo:lopl1:1,2017-02-11T17:11:00Z,28.8850,-90.0250,1023.1,11111222 
LOOP,urn:ioos:station:wmo:lopl1:1,2017-02-11T18:11:00Z,28.8850,-90.0250,1022.1,11111222 
LOOP,urn:ioos:station:wmo:lopl1:1,2017-02-11T19:11:00Z,28.8850,-90.0250,1021.1,11111222 
LOOP,urn:ioos:station:wmo:lopl1:1,2017-02-11T20:11:00Z,28.8850,-90.0250,1020.1,11111222 
LOOP,urn:ioos:station:wmo:lopl1:1,2017-02-11T21:11:00Z,28.8850,-90.0250,1020.1,11111222 
LOOP,urn:ioos:station:wmo:lopl1:1,2017-02-11T22:11:00Z,28.8850,-90.0250,1020.1,11111222 
LOOP,urn:ioos:station:wmo:lopl1:1,2017-02-11T23:16:00Z,28.8850,-90.0250,1021.1,11111222 
LOOP,urn:ioos:station:wmo:lopl1:1,2017-02-12T00:16:00Z,28.8850,-90.0250,1021.1,11111222 
LOOP,urn:ioos:station:wmo:lopl1:1,2017-02-12T01:16:00Z,28.8850,-90.0250,1021.1,11111222 
LOOP,urn:ioos:station:wmo:lopl1:1,2017-02-12T02:16:00Z,28.8850,-90.0250,1021.1,11111222 
LOOP,urn:ioos:station:wmo:lopl1:1,2017-02-12T03:16:00Z,28.8850,-90.0250,1021.1,11111222 
LOOP,urn:ioos:station:wmo:lopl1:1,2017-02-12T04:16:00Z,28.8850,-90.0250,1021.1,11111222 
LOOP,urn:ioos:station:wmo:lopl1:1,2017-02-12T05:16:00Z,28.8850,-90.0250,1020.1,11111222 
LOOP,urn:ioos:station:wmo:lopl1:1,2017-02-12T06:31:00Z,28.8850,-90.0250,1019.1,11111222 
LOOP,urn:ioos:station:wmo:lopl1:1,2017-02-12T07:31:00Z,28.8850,-90.0250,1019.1,11111222 
LOOP,urn:ioos:station:wmo:lopl1:1,2017-02-12T08:31:00Z,28.8850,-90.0250,1019.1,11111222 
LOOP,urn:ioos:station:wmo:lopl1:1,2017-02-12T09:31:00Z,28.8850,-90.0250,1019.1,11111222 
LOOP,urn:ioos:station:wmo:lopl1:1,2017-02-12T10:31:00Z,28.8850,-90.0250,1019.1,11111222 
LOOP,urn:ioos:station:wmo:lopl1:1,2017-02-12T11:31:00Z,28.8850,-90.0250,1020.1,11111222 
LOOP,urn:ioos:station:wmo:lopl1:1,2017-02-12T12:31:00Z,28.8850,-90.0250,1020.1,11111222 
LOOP,urn:ioos:station:wmo:lopl1:1,2017-02-12T13:36:00Z,28.8850,-90.0250,1021.1,11111222 
LOOP,urn:ioos:station:wmo:lopl1:1,2017-02-12T14:36:00Z,28.8850,-90.0250,1022.1,11111222 
LOOP,urn:ioos:station:wmo:lopl1:1,2017-02-12T15:36:00Z,28.8850,-90.0250,1022.1,11111222 
LOOP,urn:ioos:station:wmo:lopl1:1,2017-02-12T16:36:00Z,28.8850,-90.0250,1022.1,11111222 
LOOP,urn:ioos:station:wmo:lopl1:1,2017-02-12T17:36:00Z,28.8850,-90.0250,1022.1,11111222 
LOOP,urn:ioos:station:wmo:lopl1:1,2017-02-12T18:36:00Z,28.8850,-90.0250,1021.1,11111222 
LOOP,urn:ioos:station:wmo:lopl1:1,2017-02-12T19:36:00Z,28.8850,-90.0250,1021.1,11111222 
LOOP,urn:ioos:station:wmo:lopl1:1,2017-02-12T20:36:00Z,28.8850,-90.0250,1020.1,11111222 
LOOP,urn:ioos:station:wmo:lopl1:1,2017-02-12T21:36:00Z,28.8850,-90.0250,1021.1,11111222 